Weather History for Abadan, Iran

Change the Weather History Date:

Tuesday, February 12, 2013

  Actual Average Record
Temperature  
Mean Temperature 68 °F -  
Max Temperature 77 °F 73 °F - ()
Min Temperature 59 °F 50 °F - ()
Cooling Degree Days 3    
Growing Degree Days 18 (Base 50)    
Moisture  
Dew Point 54 °F    
Average Humidity 62    
Maximum Humidity 94    
Minimum Humidity 34    
Precipitation  
Precipitation 0.00 in 0.03 in - ()
Sea Level Pressure  
Sea Level Pressure 29.88 in    
Wind  
Wind Speed 6 mph ()    
Max Wind Speed 14 mph    
Max Gust Speed -    
Visibility 3.7 miles    
Events      
T = Trace of Precipitation, MM = Missing Value Source: Averaged Metar Reports

Daily Weather History Graph

Daily Weather History Graph

Search for Another Location

Airport:

Trip Planner

Search our weather history database for the weather conditions in past years. The results will help you decide how hot, cold, wet, or windy it might be!

Date:

Astronomy

Feb. 12, 2013 Rise Set
Actual Time 6:59 AM IRST 6:02 PM IRST
Civil Twilight 6:35 AM IRST 6:27 PM IRST
Nautical Twilight 6:07 AM IRST 6:55 PM IRST
Astronomical Twilight 5:38 AM IRST 7:23 PM IRST
Moon 7:57 AM IRST (2/12) 8:23 PM IRST (2/12)
Length of Visible Light 11h 52m
Length of Day
11h 02m
Waxing Crescent, 5% of the Moon is Illuminated
Feb 12
Waxing Crescent
Feb 18
First Quarter
Feb 25
Full
Mar 5
Last Quarter
Mar 11
New

Hourly Weather History & Observations

Time (IRST) Temp. Dew Point Humidity Pressure Visibility Wind Dir Wind Speed Gust Speed Precip Events Conditions
12:00 AM 66.2 °F 57.2 °F 73% 29.80 in - ESE 6.9 mph - N/A   Clear
12:30 AM 66.2 °F 55.4 °F 68% 29.80 in - ESE 6.9 mph - N/A   Clear
1:30 AM 66.2 °F 55.4 °F 68% 29.77 in 4.3 mi SSE 6.9 mph - N/A   Unknown
2:30 AM 64.4 °F 55.4 °F 73% 29.77 in 4.3 mi ESE 4.6 mph - N/A   Unknown
3:30 AM 63 °F 57 °F 74% 29.79 in 5 mi ESE 6.7 mph - -   Haze
3:30 AM 62.6 °F 57.2 °F 82% 29.77 in 5.0 mi ESE 6.9 mph - N/A   Clear
4:30 AM 62.6 °F 57.2 °F 82% 29.74 in 5.0 mi Calm Calm - N/A   Unknown
5:30 AM 62.6 °F 57.2 °F 82% 29.77 in 4.3 mi Calm Calm - N/A   Unknown
6:30 AM 59.0 °F 57.2 °F 94% 29.77 in 2.5 mi Calm Calm - N/A   Mist
7:30 AM 59.0 °F 55.4 °F 88% 29.80 in 1.9 mi WSW 4.6 mph - N/A   Mist
8:30 AM 59.0 °F 55.4 °F 88% 29.86 in 1.9 mi SSW 4.6 mph - N/A   Clear
9:30 AM 61 °F 55 °F 75% 29.88 in 2 mi West 8.9 mph - -   Mist
9:30 AM 60.8 °F 55.4 °F 82% 29.86 in 1.9 mi West 9.2 mph - N/A   Mist
10:30 AM 66.2 °F 57.2 °F 73% 29.89 in 1.9 mi West 9.2 mph - N/A   Mist
11:00 AM 66.2 °F 57.2 °F 73% 29.92 in 2.5 mi West 13.8 mph - N/A   Haze
11:30 AM 68.0 °F 55.4 °F 64% 29.92 in 3.1 mi WNW 6.9 mph - N/A   Haze
12:00 PM 69.8 °F 55.4 °F 60% 29.92 in 3.7 mi WNW 4.6 mph - N/A   Clear
12:30 PM 71.6 °F 53.6 °F 53% 29.89 in 3.7 mi NNW 11.5 mph - N/A   Clear
1:30 PM 73.4 °F 55.4 °F 53% 29.89 in 3.7 mi North 4.6 mph - N/A   Clear
2:30 PM 75.2 °F 53.6 °F 47% 29.89 in 3.7 mi North 6.9 mph - N/A   Clear
3:30 PM 76 °F 53 °F 34% 29.91 in 6 mi North 6.7 mph - -  
3:30 PM 77.0 °F 53.6 °F 44% 29.89 in 3.7 mi North 6.9 mph - N/A   Clear
4:30 PM 77.0 °F 50.0 °F 39% 29.89 in - North 6.9 mph - N/A   Clear
5:00 PM 77.0 °F 50.0 °F 39% 29.89 in - NNW 9.2 mph - N/A   Clear
5:30 PM 77.0 °F 50.0 °F 39% 29.89 in - North 6.9 mph - N/A   Clear
6:00 PM 75.2 °F 51.8 °F 44% 29.89 in 3.7 mi NE 4.6 mph - N/A   Clear
6:30 PM 77.0 °F 50.0 °F 39% 29.89 in 3.7 mi NNW 6.9 mph - N/A   Clear
7:30 PM 73.4 °F 53.6 °F 50% 29.92 in 5.0 mi Calm Calm - N/A   Clear
8:30 PM 71.6 °F 53.6 °F 53% 29.95 in - NNW 13.8 mph - N/A   Clear
9:00 PM 69.8 °F 53.6 °F 56% 29.95 in - North 9.2 mph - N/A   Clear
9:30 PM 68 °F 55 °F 54% 29.99 in 6 mi NNW 8.9 mph - -  
9:30 PM 68.0 °F 55.4 °F 64% 29.98 in - NNW 9.2 mph - N/A   Clear
10:30 PM 66.2 °F 48.2 °F 52% 29.98 in - NNW 13.8 mph - N/A   Clear
11:00 PM 66.2 °F 50.0 °F 56% 30.01 in - NW 13.8 mph - N/A   Clear
11:30 PM 66.2 °F 50.0 °F 56% 30.01 in - NNW 13.8 mph - N/A   Clear